Location: Recife
(8.0585°S, 34.8848°W)
Time: 21:50:17
(UTC-03:00)

Altair - Pass Details

Date: 14 April 2026
Orbit: 1501 x 1682 km, 47.2° (Epoch: 17 May)

Event Time Altitude Azimuth Distance (km) Brightness Sun altitude
Rises 23:18:03 0° 295° (WNW) 4,630 - -88.3°
Reaches altitude 10° 23:21:28 10° 286° (WNW) 3,646 - -88.3°
Maximum altitude 23:29:23 33° 225° (SW) 2,333 - -87.1°
Drops below altitude 10° 23:37:27 10° 164° (SSE) 3,696 - -85.3°
Sets 23:41:00 0° 154° (SSE) 4,702 - -84.5°
